| time (UTC) | temp F | wind direction | speed MPH | gust MPH | rain 1hr in | rain 24hr in | rain mn in | humidity % | barometer mb |
| 20260505124613 | 54 | 59 | 3.0 | 9.0 | 0.00 | 0.00 | 0.00 | 58 | 1009.5 |
| 20260505124114 | 55 | 155 | 3.0 | 8.0 | 0.00 | 0.00 | 0.00 | 58 | 1009.4 |
| 20260505123621 | 55 | 124 | 3.0 | 8.0 | 0.00 | 0.00 | 0.00 | 56 | 1009.4 |
| 20260505123150 | 55 | 91 | 4.0 | 8.0 | 0.00 | 0.00 | 0.00 | 56 | 1009.3 |
| 20260505122628 | 55 | 129 | 4.0 | 10.0 | 0.00 | 0.00 | 0.00 | 58 | 1009.2 |
| 20260505122129 | 55 | 135 | 3.0 | 10.0 | 0.00 | 0.00 | 0.00 | 61 | 1009.2 |
| 20260505121638 | 55 | 67 | 2.0 | 5.0 | 0.00 | 0.00 | 0.00 | 62 | 1009.2 |
| 20260505121117 | 55 | 118 | 2.0 | 5.0 | 0.00 | 0.00 | 0.00 | 61 | 1009.1 |
| 20260505120618 | 55 | 136 | 1.0 | 3.0 | 0.00 | 0.00 | 0.00 | 60 | 1009.2 |
| 20260505120126 | 55 | 127 | 2.0 | 3.0 | 0.00 | 0.00 | 0.00 | 59 | 1009.1 |
| 20260505115627 | 55 | 139 | 1.0 | 4.0 | 0.00 | 0.00 | 0.00 | 58 | 1009.1 |
| 20260505115135 | 55 | 101 | 1.0 | 4.0 | 0.00 | 0.00 | 0.00 | 59 | 1009.1 |
| 20260505114616 | 54 | 60 | 0.0 | 1.0 | 0.00 | 0.00 | 0.00 | 60 | 1009.1 |
| 20260505114117 | 54 | 60 | 0.0 | 1.0 | 0.00 | 0.00 | 0.00 | 60 | 1009.1 |
| 20260505113626 | 54 | 57 | 0.0 | 1.0 | 0.00 | 0.00 | 0.00 | 61 | 1009.1 |
| 20260505113126 | 54 | 341 | 0.0 | 1.0 | 0.00 | 0.00 | 0.00 | 61 | 1009.1 |
| 20260505112635 | 54 | 333 | 0.0 | 1.0 | 0.00 | 0.00 | 0.00 | 62 | 1009.1 |
| 20260505112115 | 54 | 333 | 0.0 | 1.0 | 0.00 | 0.00 | 0.00 | 63 | 1009.1 |
| 20260505111625 | 54 | 332 | 0.0 | 0.0 | 0.00 | 0.00 | 0.00 | 63 | 1009.1 |
| 20260505111124 | 54 | 332 | 0.0 | 0.0 | 0.00 | 0.00 | 0.00 | 62 | 1009.2 |
| 20260505110631 | 55 | 332 | 0.0 | 0.0 | 0.00 | 0.00 | 0.00 | 61 | 1009.3 |
| 20260505110133 | 55 | 332 | 0.0 | 1.0 | 0.00 | 0.00 | 0.00 | 60 | 1009.3 |
| 20260505102155 | 56 | 34 | 0.0 | 1.0 | 0.00 | 0.00 | 0.00 | 54 | 1009.1 |
| 20260505101616 | 56 | 68 | 1.0 | 2.0 | 0.00 | 0.00 | 0.00 | 54 | 1009.2 |
| 20260505101117 | 56 | 108 | 0.0 | 3.0 | 0.00 | 0.00 | 0.00 | 55 | 1009.2 |
| 20260505100625 | 56 | 283 | 1.0 | 4.0 | 0.00 | 0.00 | 0.00 | 55 | 1009.2 |
| 20260505100146 | 56 | 101 | 2.0 | 7.0 | 0.00 | 0.00 | 0.00 | 56 | 1009.4 |
| 20260505095634 | 56 | 145 | 1.0 | 7.0 | 0.00 | 0.00 | 0.00 | 55 | 1009.4 |
| 20260505095114 | 56 | 89 | 3.0 | 7.0 | 0.00 | 0.00 | 0.00 | 58 | 1009.4 |
| 20260505094622 | 56 | 115 | 3.0 | 5.0 | 0.00 | 0.00 | 0.00 | 58 | 1009.4 |
| 20260505094120 | 56 | 140 | 2.0 | 5.0 | 0.00 | 0.00 | 0.00 | 57 | 1009.4 |
| 20260505093620 | 56 | 60 | 0.0 | 2.0 | 0.00 | 0.00 | 0.00 | 57 | 1009.4 |
| 20260505093129 | 56 | 90 | 1.0 | 2.0 | 0.00 | 0.00 | 0.00 | 57 | 1009.4 |
| 20260505092611 | 55 | 84 | 0.0 | 2.0 | 0.00 | 0.00 | 0.00 | 58 | 1009.3 |
| 20260505092111 | 55 | 63 | 0.0 | 2.0 | 0.00 | 0.00 | 0.00 | 60 | 1009.2 |
| 20260505091639 | 55 | 73 | 1.0 | 2.0 | 0.00 | 0.00 | 0.00 | 61 | 1009.2 |
| 20260505091119 | 55 | 64 | 0.0 | 1.0 | 0.00 | 0.00 | 0.00 | 61 | 1009.2 |
| 20260505090628 | 55 | 35 | 0.0 | 2.0 | 0.00 | 0.00 | 0.00 | 62 | 1009.3 |
| 20260505090152 | 55 | 33 | 1.0 | 3.0 | 0.00 | 0.00 | 0.00 | 61 | 1009.3 |
| 20260505085615 | 55 | 30 | 1.0 | 3.0 | 0.00 | 0.00 | 0.00 | 62 | 1009.4 |
| 20260505085116 | 55 | 37 | 0.0 | 5.0 | 0.00 | 0.00 | 0.00 | 63 | 1009.5 |
| 20260505084640 | 55 | 39 | 0.0 | 5.0 | 0.00 | 0.00 | 0.00 | 63 | 1009.6 |
| 20260505084120 | 55 | 32 | 1.0 | 5.0 | 0.00 | 0.00 | 0.00 | 63 | 1009.6 |
| 20260505083649 | 56 | 344 | 1.0 | 2.0 | 0.00 | 0.00 | 0.00 | 62 | 1009.6 |
| 20260505083129 | 56 | 340 | 1.0 | 2.0 | 0.00 | 0.00 | 0.00 | 62 | 1009.6 |
| 20260505082636 | 56 | 23 | 0.0 | 4.0 | 0.00 | 0.00 | 0.00 | 62 | 1009.6 |
| 20260505082116 | 56 | 12 | 1.0 | 4.0 | 0.00 | 0.00 | 0.00 | 62 | 1009.7 |
| 20260505081617 | 56 | 29 | 1.0 | 3.0 | 0.00 | 0.00 | 0.00 | 62 | 1009.7 |
| 20260505081118 | 56 | 49 | 1.0 | 4.0 | 0.00 | 0.00 | 0.00 | 62 | 1009.7 |
| 20260505080626 | 56 | 9 | 0.0 | 4.0 | 0.00 | 0.00 | 0.00 | 62 | 1009.7 |
| 20260505080154 | 56 | 13 | 1.0 | 4.0 | 0.00 | 0.00 | 0.00 | 62 | 1009.7 |
| 20260505075633 | 56 | 38 | 0.0 | 3.0 | 0.00 | 0.00 | 0.00 | 62 | 1009.6 |
| 20260505075121 | 56 | 32 | 1.0 | 4.0 | 0.00 | 0.00 | 0.00 | 61 | 1009.6 |
| 20260505074619 | 56 | 25 | 2.0 | 4.0 | 0.00 | 0.00 | 0.00 | 61 | 1009.6 |
| 20260505074122 | 56 | 29 | 0.0 | 2.0 | 0.00 | 0.00 | 0.00 | 62 | 1009.4 |
| 20260505073630 | 56 | 360 | 0.0 | 1.0 | 0.00 | 0.00 | 0.00 | 61 | 1009.4 |
| 20260505073159 | 56 | 307 | 0.0 | 1.0 | 0.00 | 0.00 | 0.00 | 61 | 1009.5 |
| 20260505072618 | 56 | 32 | 0.0 | 2.0 | 0.00 | 0.00 | 0.00 | 61 | 1009.5 |
| 20260505072139 | 56 | 40 | 0.0 | 3.0 | 0.00 | 0.00 | 0.00 | 61 | 1009.5 |
| 20260505071627 | 56 | 4 | 0.0 | 1.0 | 0.00 | 0.00 | 0.00 | 60 | 1009.4 |
| 20260505071128 | 56 | 64 | 0.0 | 3.0 | 0.00 | 0.00 | 0.00 | 61 | 1009.5 |
| 20260505070630 | 56 | 354 | 0.0 | 3.0 | 0.00 | 0.00 | 0.00 | 62 | 1009.5 |
| 20260505070118 | 56 | 216 | 2.0 | 4.0 | 0.00 | 0.00 | 0.00 | 62 | 1009.5 |
| 20260505065620 | 56 | 269 | 0.0 | 2.0 | 0.00 | 0.00 | 0.00 | 62 | 1009.5 |
| 20260505064622 | 56 | 155 | 2.0 | 5.0 | 0.00 | 0.00 | 0.00 | 63 | 1009.5 |
| 20260505064124 | 56 | 129 | 1.0 | 7.0 | 0.00 | 0.00 | 0.00 | 63 | 1009.5 |
| 20260505063632 | 56 | 124 | 0.0 | 7.0 | 0.00 | 0.00 | 0.00 | 62 | 1009.6 |
| 20260505063113 | 56 | 139 | 2.0 | 6.0 | 0.00 | 0.00 | 0.00 | 62 | 1009.6 |
| 20260505062613 | 56 | 35 | 1.0 | 7.0 | 0.00 | 0.00 | 0.00 | 60 | 1009.5 |
| 20260505062115 | 56 | 245 | 2.0 | 7.0 | 0.00 | 0.00 | 0.00 | 60 | 1009.5 |
| 20260505061623 | 56 | 120 | 2.0 | 5.0 | 0.00 | 0.00 | 0.00 | 59 | 1009.4 |
| 20260505061124 | 56 | 77 | 1.0 | 4.0 | 0.00 | 0.00 | 0.00 | 59 | 1009.4 |
| 20260505060612 | 56 | 200 | 0.0 | 4.0 | 0.00 | 0.00 | 0.00 | 58 | 1009.3 |
| 20260505060113 | 56 | 63 | 1.0 | 7.0 | 0.00 | 0.00 | 0.00 | 57 | 1009.3 |
| 20260505055642 | 56 | 139 | 3.0 | 7.0 | 0.00 | 0.00 | 0.00 | 57 | 1009.2 |
| 20260505055123 | 56 | 191 | 2.0 | 6.0 | 0.00 | 0.00 | 0.00 | 56 | 1009.2 |
| 20260505054631 | 56 | 104 | 2.0 | 6.0 | 0.00 | 0.00 | 0.00 | 55 | 1009.4 |
| 20260505054112 | 57 | 274 | 2.0 | 6.0 | 0.00 | 0.00 | 0.00 | 54 | 1009.1 |
| 20260505053640 | 57 | 129 | 1.0 | 4.0 | 0.00 | 0.00 | 0.00 | 53 | 1009.1 |
| 20260505053121 | 57 | 198 | 1.0 | 6.0 | 0.00 | 0.00 | 0.00 | 53 | 1009.0 |
| 20260505052630 | 57 | 155 | 2.0 | 6.0 | 0.00 | 0.00 | 0.00 | 53 | 1009.0 |
| 20260505052130 | 57 | 146 | 2.0 | 6.0 | 0.00 | 0.00 | 0.00 | 52 | 1009.0 |
| 20260505051629 | 58 | 225 | 1.0 | 6.0 | 0.00 | 0.00 | 0.00 | 52 | 1008.9 |
| 20260505051137 | 58 | 126 | 1.0 | 6.0 | 0.00 | 0.00 | 0.00 | 52 | 1008.8 |
| 20260505050618 | 58 | 147 | 0.0 | 2.0 | 0.00 | 0.00 | 0.00 | 53 | 1008.8 |
| 20260505050146 | 58 | 292 | 0.0 | 2.0 | 0.00 | 0.00 | 0.00 | 52 | 1008.8 |
| 20260505041646 | 61 | 126 | 0.0 | 4.0 | 0.00 | 0.00 | 0.00 | 46 | 1008.3 |
| 20260505041127 | 61 | 82 | 2.0 | 4.0 | 0.00 | 0.00 | 0.00 | 46 | 1008.3 |
| 20260505040634 | 61 | 140 | 2.0 | 8.0 | 0.00 | 0.00 | 0.00 | 44 | 1008.3 |
| 20260505040113 | 62 | 192 | 2.0 | 8.0 | 0.00 | 0.00 | 0.00 | 43 | 1008.2 |
| 20260505035613 | 61 | 180 | 3.0 | 6.0 | 0.00 | 0.00 | 0.00 | 43 | 1008.2 |
| 20260505035122 | 60 | 86 | 2.0 | 4.0 | 0.00 | 0.00 | 0.00 | 44 | 1008.1 |
| 20260505034623 | 60 | 30 | 0.0 | 3.0 | 0.00 | 0.00 | 0.00 | 44 | 1008.0 |
| 20260505034125 | 60 | 323 | 0.0 | 1.0 | 0.00 | 0.00 | 0.00 | 44 | 1007.9 |
| 20260505033632 | 60 | 2 | 0.0 | 1.0 | 0.00 | 0.00 | 0.00 | 44 | 1007.7 |
| 20260505033141 | 61 | 2 | 0.0 | 2.0 | 0.00 | 0.00 | 0.00 | 43 | 1007.7 |
| 20260505032622 | 61 | 27 | 0.0 | 3.0 | 0.00 | 0.00 | 0.00 | 42 | 1007.5 |
| 20260505032124 | 61 | 59 | 1.0 | 3.0 | 0.00 | 0.00 | 0.00 | 43 | 1007.5 |
| 20260505031631 | 61 | 58 | 0.0 | 2.0 | 0.00 | 0.00 | 0.00 | 43 | 1007.4 |
| 20260505031111 | 61 | 108 | 0.0 | 1.0 | 0.00 | 0.00 | 0.00 | 42 | 1007.4 |
| 20260505030613 | 62 | 224 | 0.0 | 1.0 | 0.00 | 0.00 | 0.00 | 42 | 1007.4 |
| 20260505030123 | 63 | 225 | 0.0 | 2.0 | 0.00 | 0.00 | 0.00 | 40 | 1007.4 |
| 20260505025631 | 63 | 148 | 1.0 | 2.0 | 0.00 | 0.00 | 0.00 | 40 | 1007.4 |
| 20260505025112 | 63 | 354 | 0.0 | 1.0 | 0.00 | 0.00 | 0.00 | 39 | 1007.4 |
| 20260505024613 | 63 | 39 | 0.0 | 2.0 | 0.00 | 0.00 | 0.00 | 38 | 1007.3 |
| 20260505024115 | 64 | 39 | 1.0 | 2.0 | 0.00 | 0.00 | 0.00 | 37 | 1007.3 |
| 20260505023643 | 65 | 32 | 1.0 | 2.0 | 0.00 | 0.00 | 0.00 | 37 | 1007.2 |
| 20260505023124 | 65 | 160 | 0.0 | 3.0 | 0.00 | 0.00 | 0.00 | 35 | 1007.2 |
| 20260505022630 | 66 | 148 | 1.0 | 4.0 | 0.00 | 0.00 | 0.00 | 34 | 1007.2 |
| 20260505022112 | 66 | 128 | 0.0 | 3.0 | 0.00 | 0.00 | 0.00 | 34 | 1007.1 |
| 20260505021618 | 66 | 160 | 1.0 | 6.0 | 0.00 | 0.00 | 0.00 | 33 | 1007.0 |
| 20260505021146 | 67 | 117 | 3.0 | 6.0 | 0.00 | 0.00 | 0.00 | 33 | 1007.0 |
| 20260505020648 | 67 | 86 | 0.0 | 4.0 | 0.00 | 0.00 | 0.00 | 34 | 1007.0 |
| 20260505020114 | 67 | 137 | 1.0 | 5.0 | 0.00 | 0.00 | 0.00 | 33 | 1007.0 |
| 20260505015615 | 66 | 134 | 1.0 | 7.0 | 0.00 | 0.00 | 0.00 | 33 | 1007.0 |
| 20260505015117 | 66 | 87 | 3.0 | 7.0 | 0.00 | 0.00 | 0.00 | 33 | 1006.9 |
| 20260505014645 | 66 | 146 | 2.0 | 5.0 | 0.00 | 0.00 | 0.00 | 33 | 1006.9 |
| 20260505014133 | 66 | 59 | 2.0 | 4.0 | 0.00 | 0.00 | 0.00 | 32 | 1006.9 |
| 20260505013614 | 66 | 78 | 1.0 | 5.0 | 0.00 | 0.00 | 0.00 | 32 | 1006.9 |
| 20260505013113 | 66 | 102 | 2.0 | 5.0 | 0.00 | 0.00 | 0.00 | 32 | 1007.0 |
| 20260505012614 | 67 | 102 | 1.0 | 6.0 | 0.00 | 0.00 | 0.00 | 31 | 1007.0 |
| 20260505012121 | 67 | 68 | 2.0 | 6.0 | 0.00 | 0.00 | 0.00 | 31 | 1007.0 |
| 20260505011619 | 67 | 82 | 2.0 | 7.0 | 0.00 | 0.00 | 0.00 | 31 | 1007.0 |
| 20260505011127 | 67 | 52 | 2.0 | 7.0 | 0.00 | 0.00 | 0.00 | 31 | 1007.0 |
| 20260505010656 | 67 | 82 | 2.0 | 4.0 | 0.00 | 0.00 | 0.00 | 32 | 1007.1 |
| 20260505010115 | 67 | 93 | 2.0 | 7.0 | 0.00 | 0.00 | 0.00 | 32 | 1007.0 |
| 20260505005613 | 67 | 61 | 4.0 | 8.0 | 0.00 | 0.00 | 0.00 | 32 | 1007.0 |
| 20260505005120 | 66 | 61 | 3.0 | 11.0 | 0.00 | 0.00 | 0.00 | 32 | 1007.0 |
| 20260505004623 | 67 | 88 | 3.0 | 7.0 | 0.00 | 0.00 | 0.00 | 32 | 1007.2 |
| 20260505004124 | 67 | 105 | 2.0 | 9.0 | 0.00 | 0.00 | 0.00 | 32 | 1007.1 |
| 20260505003632 | 66 | 72 | 4.0 | 10.0 | 0.00 | 0.00 | 0.00 | 32 | 1007.2 |
| 20260505003113 | 66 | 68 | 5.0 | 12.0 | 0.00 | 0.00 | 0.00 | 33 | 1007.3 |
| 20260505002628 | 66 | 56 | 6.0 | 13.0 | 0.00 | 0.00 | 0.00 | 33 | 1007.4 |
| 20260505002150 | 66 | 63 | 4.0 | 15.0 | 0.00 | 0.00 | 0.00 | 34 | 1007.4 |
| 20260505001612 | 66 | 129 | 7.0 | 16.0 | 0.00 | 0.00 | 0.00 | 34 | 1007.4 |
| 20260505001121 | 66 | 55 | 8.0 | 18.0 | 0.00 | 0.00 | 0.00 | 34 | 1007.5 |
| 20260505000621 | 66 | 84 | 9.0 | 18.0 | 0.00 | 0.00 | 0.00 | 33 | 1007.6 |
| 20260505000129 | 67 | 83 | 9.0 | 18.0 | 0.00 | 0.00 | 0.00 | 34 | 1007.9 |
| 20260504235630 | 67 | 57 | 8.0 | 26.0 | 0.00 | 0.00 | 0.00 | 35 | 1007.8 |
| 20260504235111 | 66 | 113 | 9.0 | 26.0 | 0.00 | 0.00 | 0.00 | 37 | 1007.8 |
| 20260504234639 | 66 | 115 | 11.0 | 22.0 | 0.00 | 0.00 | 0.00 | 37 | 1008.2 |
| 20260504234120 | 66 | 110 | 9.0 | 23.0 | 0.00 | 0.00 | 0.00 | 36 | 1008.0 |
| 20260504233628 | 67 | 63 | 11.0 | 23.0 | 0.00 | 0.00 | 0.00 | 36 | 1008.0 |
| 20260504233148 | 67 | 152 | 10.0 | 20.0 | 0.00 | 0.00 | 0.00 | 37 | 1008.3 |
| 20260504232635 | 67 | 34 | 7.0 | 15.0 | 0.00 | 0.00 | 0.00 | 38 | 1008.3 |
| 20260504232116 | 65 | 83 | 6.0 | 22.0 | 0.00 | 0.00 | 0.00 | 39 | 1008.3 |
| 20260504231644 | 65 | 49 | 8.0 | 18.0 | 0.00 | 0.00 | 0.00 | 38 | 1008.4 |
| 20260504231124 | 65 | 74 | 10.0 | 18.0 | 0.00 | 0.00 | 0.00 | 38 | 1008.4 |
| 20260504230626 | 64 | 71 | 8.0 | 14.0 | 0.00 | 0.00 | 0.00 | 38 | 1008.4 |
| 20260504230134 | 64 | 110 | 6.0 | 10.0 | 0.00 | 0.00 | 0.00 | 38 | 1008.6 |
| 20260504225615 | 63 | 63 | 3.0 | 7.0 | 0.00 | 0.00 | 0.00 | 42 | 1008.6 |
| 20260504225116 | 63 | 92 | 3.0 | 6.0 | 0.00 | 0.00 | 0.00 | 41 | 1008.6 |
| 20260504224625 | 63 | 105 | 3.0 | 7.0 | 0.00 | 0.00 | 0.00 | 41 | 1008.6 |
| 20260504224128 | 63 | 141 | 2.0 | 7.0 | 0.00 | 0.00 | 0.00 | 40 | 1008.6 |
| 20260504223629 | 63 | 130 | 3.0 | 9.0 | 0.00 | 0.00 | 0.00 | 40 | 1008.5 |
| 20260504223112 | 62 | 181 | 4.0 | 11.0 | 0.00 | 0.00 | 0.00 | 42 | 1008.5 |
| 20260504222640 | 63 | 101 | 4.0 | 11.0 | 0.00 | 0.00 | 0.00 | 42 | 1008.5 |
| 20260504222128 | 63 | 135 | 4.0 | 15.0 | 0.00 | 0.00 | 0.00 | 42 | 1008.3 |
| 20260504221629 | 62 | 197 | 8.0 | 21.0 | 0.00 | 0.00 | 0.00 | 42 | 1008.2 |
| 20260504221130 | 64 | 196 | 10.0 | 21.0 | 0.00 | 0.00 | 0.00 | 43 | 1008.3 |
| 20260504220639 | 66 | 139 | 8.0 | 15.0 | 0.00 | 0.00 | 0.00 | 39 | 1008.1 |
| 20260504220120 | 67 | 175 | 5.0 | 9.0 | 0.00 | 0.00 | 0.00 | 37 | 1007.9 |
| 20260504215631 | 67 | 146 | 3.0 | 15.0 | 0.00 | 0.00 | 0.00 | 33 | 1007.9 |
| 20260504215128 | 68 | 165 | 5.0 | 15.0 | 0.00 | 0.00 | 0.00 | 32 | 1007.9 |
| 20260504214629 | 68 | 41 | 4.0 | 11.0 | 0.00 | 0.00 | 0.00 | 30 | 1007.9 |
| 20260504214118 | 69 | 245 | 6.0 | 11.0 | 0.00 | 0.00 | 0.00 | 29 | 1007.8 |
| 20260504213617 | 70 | 199 | 2.0 | 9.0 | 0.00 | 0.00 | 0.00 | 29 | 1007.8 |
| 20260504213131 | 71 | 255 | 2.0 | 5.0 | 0.00 | 0.00 | 0.00 | 27 | 1007.7 |
| 20260504212632 | 71 | 273 | 1.0 | 6.0 | 0.00 | 0.00 | 0.00 | 27 | 1007.7 |
| 20260504212139 | 71 | 275 | 3.0 | 6.0 | 0.00 | 0.00 | 0.00 | 27 | 1007.7 |
| 20260504211619 | 71 | 288 | 3.0 | 5.0 | 0.00 | 0.00 | 0.00 | 27 | 1007.8 |
| 20260504211119 | 71 | 234 | 0.0 | 5.0 | 0.00 | 0.00 | 0.00 | 29 | 1007.8 |
| 20260504210648 | 72 | 285 | 2.0 | 5.0 | 0.00 | 0.00 | 0.00 | 27 | 1007.9 |
| 20260504210134 | 71 | 319 | 0.0 | 3.0 | 0.00 | 0.00 | 0.00 | 27 | 1007.9 |
| 20260504205616 | 71 | 311 | 1.0 | 5.0 | 0.00 | 0.00 | 0.00 | 28 | 1008.0 |
| 20260504205145 | 72 | 285 | 1.0 | 4.0 | 0.00 | 0.00 | 0.00 | 27 | 1008.1 |
| 20260504204641 | 72 | 44 | 2.0 | 4.0 | 0.00 | 0.00 | 0.00 | 27 | 1008.0 |
| 20260504204127 | 72 | 344 | 0.0 | 4.0 | 0.00 | 0.00 | 0.00 | 26 | 1008.1 |
| 20260504203612 | 72 | 30 | 1.0 | 4.0 | 0.00 | 0.00 | 0.00 | 27 | 1008.0 |
| 20260504203156 | 72 | 260 | 1.0 | 4.0 | 0.00 | 0.00 | 0.00 | 27 | 1008.1 |
| 20260504202615 | 72 | 311 | 1.0 | 5.0 | 0.00 | 0.00 | 0.00 | 27 | 1008.2 |
| 20260504202116 | 72 | 266 | 1.0 | 5.0 | 0.00 | 0.00 | 0.00 | 28 | 1008.3 |
| 20260504201624 | 72 | 299 | 1.0 | 5.0 | 0.00 | 0.00 | 0.00 | 28 | 1008.3 |
| 20260504201124 | 72 | 130 | 2.0 | 8.0 | 0.00 | 0.00 | 0.00 | 26 | 1008.3 |
| 20260504200631 | 72 | 333 | 2.0 | 8.0 | 0.00 | 0.00 | 0.00 | 28 | 1008.4 |
| 20260504200112 | 71 | 285 | 4.0 | 9.0 | 0.00 | 0.00 | 0.00 | 28 | 1008.4 |
| 20260504195614 | 71 | 32 | 2.0 | 8.0 | 0.00 | 0.00 | 0.00 | 28 | 1008.5 |
| 20260504195121 | 72 | 291 | 2.0 | 6.0 | 0.00 | 0.00 | 0.00 | 27 | 1008.5 |
| 20260504194622 | 72 | 264 | 4.0 | 6.0 | 0.00 | 0.00 | 0.00 | 26 | 1008.5 |
| 20260504194130 | 72 | 321 | 1.0 | 8.0 | 0.00 | 0.00 | 0.00 | 26 | 1008.5 |
| 20260504193632 | 73 | 9 | 2.0 | 8.0 | 0.00 | 0.00 | 0.00 | 28 | 1008.6 |
| 20260504193119 | 73 | 309 | 1.0 | 6.0 | 0.00 | 0.00 | 0.00 | 26 | 1008.6 |
| 20260504192639 | 74 | 307 | 4.0 | 6.0 | 0.00 | 0.00 | 0.00 | 25 | 1008.7 |
| 20260504192125 | 75 | 158 | 1.0 | 5.0 | 0.00 | 0.00 | 0.00 | 26 | 1008.6 |
| 20260504191626 | 74 | 136 | 2.0 | 7.0 | 0.00 | 0.00 | 0.00 | 25 | 1008.7 |
| 20260504191135 | 74 | 349 | 2.0 | 8.0 | 0.00 | 0.00 | 0.00 | 23 | 1008.9 |
| 20260504190615 | 76 | 309 | 3.0 | 8.0 | 0.00 | 0.00 | 0.00 | 24 | 1009.0 |
| 20260504190140 | 76 | 334 | 4.0 | 7.0 | 0.00 | 0.00 | 0.00 | 25 | 1009.0 |
| 20260504185640 | 76 | 245 | 1.0 | 7.0 | 0.00 | 0.00 | 0.00 | 27 | 1009.0 |
| 20260504185127 | 75 | 267 | 2.0 | 7.0 | 0.00 | 0.00 | 0.00 | 26 | 1009.0 |
| 20260504184628 | 74 | 293 | 1.0 | 8.0 | 0.00 | 0.00 | 0.00 | 26 | 1009.1 |
| 20260504184137 | 73 | 184 | 4.0 | 8.0 | 0.00 | 0.00 | 0.00 | 26 | 1009.1 |
| 20260504183616 | 74 | 156 | 3.0 | 7.0 | 0.00 | 0.00 | 0.00 | 25 | 1009.2 |
| 20260504183117 | 73 | 259 | 2.0 | 3.0 | 0.00 | 0.00 | 0.00 | 28 | 1009.3 |
| 20260504182624 | 74 | 285 | 1.0 | 4.0 | 0.00 | 0.00 | 0.00 | 25 | 1009.3 |
| 20260504182132 | 73 | 205 | 2.0 | 5.0 | 0.00 | 0.00 | 0.00 | 27 | 1009.4 |
| 20260504181611 | 72 | 27 | 1.0 | 5.0 | 0.00 | 0.00 | 0.00 | 25 | 1009.6 |
| 20260504181139 | 73 | 314 | 1.0 | 4.0 | 0.00 | 0.00 | 0.00 | 27 | 1009.6 |
| 20260504180619 | 72 | 309 | 2.0 | 7.0 | 0.00 | 0.00 | 0.00 | 27 | 1009.7 |
| 20260504180126 | 72 | 272 | 1.0 | 10.0 | 0.00 | 0.00 | 0.00 | 27 | 1009.8 |
| 20260504175626 | 72 | 282 | 3.0 | 10.0 | 0.00 | 0.00 | 0.00 | 29 | 1009.8 |
| 20260504175135 | 73 | 288 | 0.0 | 5.0 | 0.00 | 0.00 | 0.00 | 28 | 1009.7 |
| 20260504174636 | 73 | 221 | 1.0 | 6.0 | 0.00 | 0.00 | 0.00 | 30 | 1009.8 |
| 20260504174124 | 73 | 233 | 2.0 | 5.0 | 0.00 | 0.00 | 0.00 | 31 | 1009.9 |
| 20260504173624 | 72 | 262 | 1.0 | 5.0 | 0.00 | 0.00 | 0.00 | 30 | 1009.9 |
| 20260504173125 | 72 | 255 | 2.0 | 5.0 | 0.00 | 0.00 | 0.00 | 31 | 1009.9 |
| 20260504172633 | 71 | 230 | 1.0 | 3.0 | 0.00 | 0.00 | 0.00 | 30 | 1010.1 |
| 20260504172114 | 71 | 260 | 1.0 | 5.0 | 0.00 | 0.00 | 0.00 | 32 | 1010.1 |
| 20260504171616 | 71 | 240 | 2.0 | 5.0 | 0.00 | 0.00 | 0.00 | 31 | 1010.2 |
| 20260504171116 | 70 | 224 | 1.0 | 5.0 | 0.00 | 0.00 | 0.00 | 31 | 1010.2 |
| 20260504170622 | 70 | 303 | 2.0 | 5.0 | 0.00 | 0.00 | 0.00 | 31 | 1010.2 |
| 20260504170122 | 70 | 270 | 1.0 | 5.0 | 0.00 | 0.00 | 0.00 | 31 | 1010.3 |
| 20260504160135 | 66 | 269 | 0.0 | 2.0 | 0.00 | 0.00 | 0.00 | 32 | 1010.4 |
| 20260504151122 | 67 | 240 | 0.0 | 1.0 | 0.00 | 0.00 | 0.00 | 34 | 1010.8 |
| 20260504150629 | 66 | 118 | 1.0 | 1.0 | 0.00 | 0.00 | 0.00 | 33 | 1010.8 |
| 20260504150130 | 66 | 223 | 0.0 | 1.0 | 0.00 | 0.00 | 0.00 | 34 | 1010.8 |
| 20260504141129 | 60 | 86 | 0.0 | 0.0 | 0.00 | 0.00 | 0.00 | 42 | 1010.9 |
| 20260504140617 | 60 | 86 | 0.0 | 0.0 | 0.00 | 0.00 | 0.00 | 44 | 1010.8 |
| 20260504140125 | 59 | 86 | 0.0 | 0.0 | 0.00 | 0.00 | 0.00 | 44 | 1010.8 |